SMAP (40376 NORAD) Tracking and Keplerian Element Data

This shows tracking and keplerian element data for the satellite.

Feedback or suggestion? Click here.




ElementValue
Catalog40376
NameSMAP
Epoch Orbit22555
Epoch Day112.78119732
Epoch Year2019
RAAN120.5351
Inclination98.1237
Eccentricity0.0001149
Argument of Perigee113.3835
Mean Anonmoly246.7475
Mean Motion14.63364423
Decay Rate4.3E-07
L11 40376U 15003A 19112.78119732 .00000043 00000-0 17320-4 0 9995
L22 40376 98.1237 120.5351 0001149 113.3835 246.7475 14.63364423225558

Live tracking and technical data element details for SMAP (NORAD 40376). SMAP can be tracked NOW for your location showing map with azimuth and elevation plus other details from your city location.

Track the satellite on the map from your city or location and see movement details for azimuth, elevation, latitude, longitude, range, height, and movement on the map or in text.







IsCatalogInMostPopularTable: catalog: 40376, numindb: 191
Update: records affected: 1



GetName: 40376 SMAP

Hit Count: updated at: Tue, 23 Apr 2019 05:51:55 GMT